Location: Caltech
(34.1382°N, 118.1253°W)
Time: 11:02:45
(UTC-07:00)

Cosmos 1626 - Visible Passes

Search period start: 24 October 2014 00:00
Search period end: 02 November 2014 23:00
Orbit: 516 x 519 km, 82.5° (Epoch: 23 October)

Date Brightness Start Highest point End Pass type
(mag) Time Alt. Az. Time Alt. Az. Time Alt. Az.
24 Oct 2.2 19:08:52 10° N 19:12:42 84° W 19:16:30 10° S visible
25 Oct 2.1 18:54:21 10° N 18:58:11 78° E 19:02:00 10° S visible
26 Oct 2.2 18:39:52 10° N 18:43:39 62° E 18:47:25 10° SSE visible
28 Oct 5.2 06:37:03 10° SE 06:40:02 22° E 06:43:01 10° NE visible
29 Oct 5.4 06:22:52 10° SE 06:25:31 18° E 06:28:10 10° NE visible
29 Oct 5.7 19:33:50 10° WNW 19:35:18 12° W 19:36:45 10° WSW visible
30 Oct 5.5 06:08:48 10° ESE 06:10:59 15° E 06:13:11 10° NE visible
30 Oct 5.5 19:18:37 10° NW 19:20:46 15° W 19:22:54 10° WSW visible
31 Oct 5.7 05:54:55 10° ESE 05:56:27 12° E 05:57:59 10° ENE visible
31 Oct 5.4 19:03:36 10° NW 19:06:13 18° W 19:08:49 10° SW visible
01 Nov 5.1 18:48:41 10° NW 18:51:39 22° W 18:54:36 10° SW visible
02 Nov 4.7 17:33:50 10° NNW 17:37:03 26° W 17:40:16 10° SSW visible
